Content
SEND FEEDBACK

Daily
Averages
Monthly
Summary
United Kingdom

NEWTOWNNARDS, NORTHERN IRELAND


Home > Europe > United Kingdom > Northern Ireland
Elevation: 112 feet     Latitude: 54 40N     Longitude: 005 35W

WEATHER
 
SELECT A DAY
Number of Records: 191,170;   Date Range: 7/1/96 - 8/21/14
 
SHARE

PRINT THIS DATA

[ ← Previous Day ]
WEATHER ALMANAC - APRIL 4, 2013
[ Next Day → ]
[ °C ]   °F
Weather ElementAverageHighLow
Temperature42.7 °F44.6 °F (11:20 am)37.4 °F (6:50 am)
Dewpoint29.4 °F33.8 °F (7:50 am)26.6 °F (12:50 pm)
Humidity59.9 %81 % (6:50 am)49 % (1:20 pm)
Barometer30.23 in30.24 in (6:50 am)30.21 in (3:20 pm)
Wind Speed14.4 mph18.4 mph (9:50 am)
Weather ElementAverage
Visibility6.2 mi
Wind DirectionNNE (31.4 °)

Weather ElementTotal
Precipitation---
Heating Degree Days24 (Base 65)
Averaged from 29 records on April 4, 2013
WEATHER CONDITIONS BREAKOUT
WIND DIRECTION BREAKOUT
WEATHER BY HOUR - APRIL 4, 2013
[ °C ]   °F
Local TimeTemperatureDewpointHumidityBarometerVisibilityWind DirectionWind SpeedGust SpeedPrecipitationEventsConditions
6:50 AM37.4 °F32.0 °F81 %30.24 in6.2 miNNE (30°)13.8 mphScattered Clouds
7:20 AM39.2 °F32.0 °F75 %30.24 in6.2 miNE (40°)15.0 mphScattered Clouds
7:50 AM39.2 °F33.8 °F81 %30.24 in6.2 miNE (40°)15.0 mphScattered Clouds
8:20 AM41.0 °F32.0 °F70 %30.24 in6.2 miNE (40°)13.8 mphScattered Clouds
8:50 AM41.0 °F32.0 °F70 %30.24 in6.2 miNE (40°)15.0 mphScattered Clouds
9:20 AM41.0 °F32.0 °F70 %30.24 in6.2 miNNE (30°)17.3 mphPartly Cloudy
9:50 AM41.0 °F32.0 °F70 %30.24 in6.2 miNNE (30°)18.4 mphPartly Cloudy
10:20 AM42.8 °F32.0 °F66 %30.24 in6.2 miNE (40°)17.3 mphPartly Cloudy
10:50 AM42.8 °F28.4 °F57 %30.24 in6.2 miNNE (30°)15.0 mphPartly Cloudy
11:20 AM44.6 °F28.4 °F53 %30.24 in6.2 miNNE (30°)16.1 mphPartly Cloudy
11:50 AM44.6 °F30.2 °F57 %30.24 in6.2 miNNE (20°)15.0 mphPartly Cloudy
12:20 PM44.6 °F30.2 °F57 %30.24 in6.2 miNNE (20°)15.0 mphPartly Cloudy
12:50 PM42.8 °F26.6 °F53 %30.24 in6.2 miNNE (30°)15.0 mphPartly Cloudy
1:20 PM44.6 °F26.6 °F49 %30.24 in6.2 miNNE (20°)13.8 mphPartly Cloudy
1:50 PM42.8 °F26.6 °F53 %30.24 in6.2 miNNE (30°)15.0 mphPartly Cloudy
2:20 PM42.8 °F26.6 °F53 %30.24 in6.2 miNNE (30°)13.8 mphPartly Cloudy
2:50 PM44.6 °F28.4 °F53 %30.24 in6.2 miNE (40°)15.0 mphPartly Cloudy
3:20 PM44.6 °F26.6 °F49 %30.21 in6.2 miNE (40°)15.0 mphPartly Cloudy
3:50 PM44.6 °F28.4 °F53 %30.21 in6.2 miNNE (30°)13.8 mphPartly Cloudy
4:20 PM44.6 °F28.4 °F53 %30.21 in6.2 miNNE (30°)12.7 mphPartly Cloudy
4:50 PM44.6 °F28.4 °F53 %30.21 in6.2 miNNE (30°)13.8 mphPartly Cloudy
5:20 PM44.6 °F26.6 °F49 %30.21 in6.2 miNNE (30°)15.0 mphPartly Cloudy
5:50 PM44.6 °F28.4 °F53 %30.21 in6.2 miNNE (20°)13.8 mphPartly Cloudy
6:20 PM44.6 °F28.4 °F53 %30.21 in6.2 miNNE (30°)12.7 mphPartly Cloudy
6:50 PM44.6 °F28.4 °F53 %30.21 in6.2 miNNE (20°)13.8 mphPartly Cloudy
7:20 PM42.8 °F28.4 °F57 %30.21 in6.2 miNNE (30°)15.0 mphPartly Cloudy
7:50 PM41.0 °F30.2 °F65 %30.21 inNNE (30°)12.7 mphClear
8:20 PM41.0 °F30.2 °F65 %30.21 inNE (40°)11.5 mphClear
8:50 PM41.0 °F30.2 °F65 %30.21 inNE (40°)9.2 mphClear
Hourly data recorded from EGAC, located miles away from Newtownnards, Northern Ireland







STORIES FROM OUR PARTNERS